DW9628 Weather Reports


time (UTC)temp
C
wind
direction
speed
KPH
gust
KPH
rain 1hr
cm
rain 24hr
cm
rain mn
cm
humidity
%
barometer
mb
20260509193023 14 197 0.0 0.0 0.00 0.00 0.00 37 1003.2
20260509191521 13 212 0.0 0.0 0.00 0.00 0.00 41 1003.4
20260509190022 13 162 0.0 0.0 0.00 0.00 0.00 41 1003.6
20260509184525 13 148 0.0 0.0 0.00 0.00 0.00 44 1003.6
20260509183018 13 168 0.0 0.0 0.00 0.00 0.00 44 1003.7
20260509181515 13 88 0.0 0.0 0.00 0.00 0.00 43 1003.6
20260509180012 12 82 0.0 0.0 0.00 0.00 0.00 48 1003.6
20260509174510 12 60 0.0 0.0 0.00 0.00 0.00 50 1003.7
20260509173006 11 125 0.0 0.0 0.00 0.00 0.00 53 1003.8
20260509171504 11 139 0.0 0.0 0.00 0.00 0.00 53 1003.8
20260509170002 10 156 0.0 0.0 0.00 0.00 0.00 59 1003.8
20260509164600 10 150 0.0 0.0 0.00 0.00 0.00 58 1003.7
20260509164503 10 126 0.0 0.0 0.00 0.00 0.00 58 1003.7
20260509163058 10 110 0.0 0.0 0.00 0.00 0.00 57 1003.6
20260509161603 9 178 0.0 0.0 0.00 0.00 0.00 62 1003.6
20260509160058 9 205 0.0 0.0 0.00 0.00 0.00 63 1003.4
20260509154609 9 240 0.0 0.0 0.00 0.00 0.00 64 1003.5
20260509153108 7 250 0.0 0.0 0.00 0.00 0.00 69 1003.5
20260509151601 7 264 0.0 0.0 0.00 0.00 0.00 69 1003.4
20260509150053 7 285 0.0 0.0 0.00 0.00 0.00 65 1003.3
20260509144550 8 285 0.0 0.0 0.00 0.00 0.00 60 1003.2
20260509143102 8 285 0.0 0.0 0.00 0.00 0.00 61 1003.2
20260509141548 8 285 0.0 0.0 0.00 0.00 0.00 62 1003.2
20260509140046 8 289 0.0 0.0 0.00 0.00 0.00 58 1002.9
20260509134545 8 283 0.0 0.0 0.00 0.00 0.00 57 1002.8
20260509133056 8 283 0.0 0.0 0.00 0.00 0.00 56 1002.7
20260509131542 8 283 0.0 0.0 0.00 0.00 0.00 56 1002.4
20260509130041 7 283 0.0 0.0 0.00 0.00 0.00 59 1002.3
20260509114534 9 316 0.0 0.0 0.00 0.00 0.00 53 1001.8
20260509113030 8 329 0.0 0.0 0.00 0.00 0.00 54 1001.8
20260509111528 8 322 0.0 0.0 0.00 0.00 0.00 57 1001.8
20260509110027 8 301 0.0 0.0 0.00 0.00 0.00 55 1001.7
20260509104526 9 296 0.0 0.0 0.00 0.00 0.00 53 1001.7
20260509103025 8 290 0.0 0.0 0.00 0.00 0.00 56 1001.7
20260509101529 8 302 0.0 0.0 0.00 0.00 0.00 58 1001.7
20260509100022 8 296 0.0 0.0 0.00 0.00 0.00 60 1001.6
20260509094529 8 302 0.0 0.0 0.00 0.00 0.00 60 1001.5
20260509093019 8 296 0.0 0.0 0.00 0.00 0.00 59 1001.4
20260509091523 8 306 0.0 0.0 0.00 0.00 0.00 58 1001.3
20260509090013 8 290 0.0 0.0 0.00 0.00 0.00 56 1001.3
20260509084513 9 273 0.0 0.0 0.00 0.00 0.00 54 1001.3
20260509083012 9 271 0.0 0.0 0.00 0.00 0.00 54 1001.2
20260509081521 10 301 0.0 0.0 0.00 0.00 0.00 53 1001.2
20260509080006 10 315 0.0 0.0 0.00 0.00 0.00 53 1001.2
20260509074503 10 327 0.0 0.0 0.00 0.00 0.00 51 1001.1
20260509073100 10 319 0.0 0.0 0.00 0.00 0.00 51 1000.9
20260509071600 10 317 0.0 0.0 0.00 0.00 0.00 50 1001.0
20260509070105 10 304 0.0 0.0 0.00 0.00 0.00 49 1000.7
20260509070038 10 324 0.0 0.0 0.00 0.00 0.00 49 1000.8
20260509064553 10 323 0.0 0.0 0.00 0.00 0.00 49 1000.5
20260509063109 11 306 0.0 0.0 0.00 0.00 0.00 49 1000.1
20260509061612 11 306 0.0 0.0 0.00 0.00 0.00 47 1000.1
20260509060057 11 315 0.0 0.0 0.00 0.00 0.00 47 1000.0
20260509054547 11 323 0.0 0.0 0.00 0.00 0.00 45 999.6
20260509053047 11 311 0.0 0.0 0.00 0.00 0.00 44 999.7
20260509051544 12 311 0.0 0.0 0.00 0.00 0.00 42 999.2
20260509050043 12 314 0.0 0.0 0.00 0.00 0.00 40 998.7
20260509044542 12 321 0.0 0.0 0.00 0.00 0.00 38 998.8
20260509043041 12 300 0.0 0.0 0.00 0.00 0.00 36 999.1
20260509041540 13 333 0.0 0.0 0.00 0.00 0.00 35 998.8
20260509040040 13 253 0.0 0.0 0.00 0.00 0.00 34 998.3
20260509034540 13 321 0.0 0.0 0.00 0.00 0.00 32 998.2
20260509033040 13 328 0.0 0.0 0.00 0.00 0.00 31 998.0
20260509031538 14 333 0.0 0.0 0.00 0.00 0.00 30 997.9
20260509030041 15 309 0.0 0.0 0.00 0.00 0.00 30 997.9
20260509024540 15 318 0.0 0.0 0.00 0.00 0.00 29 998.0
20260509023037 15 318 0.0 0.0 0.00 0.00 0.00 28 997.7
20260509021536 16 319 0.0 0.0 0.00 0.00 0.00 29 997.4
20260509020048 16 309 0.0 0.0 0.00 0.00 0.00 32 997.5
20260509014545 16 300 0.0 0.0 0.00 0.00 0.00 34 997.1
20260509013040 17 308 0.0 0.0 0.00 0.00 0.00 34 997.3
20260509011534 17 299 0.0 0.0 0.00 0.00 0.00 31 997.3
20260509010033 17 297 0.0 0.0 0.00 0.00 0.00 29 997.3
20260509004536 17 271 0.0 0.0 0.00 0.00 0.00 25 997.4
20260509003040 17 296 0.0 0.0 0.00 0.00 0.00 25 997.4
20260509001532 17 272 0.0 0.0 0.00 0.00 0.00 27 997.4
20260509000032 17 281 0.0 0.0 0.00 0.00 0.00 26 997.5
20260508234532 17 276 0.0 0.0 0.00 0.00 0.00 27 997.3
20260508233032 17 296 0.0 0.0 0.00 0.00 0.00 26 997.3
20260508231530 17 281 0.0 0.0 0.00 0.00 0.00 25 997.4
20260508230030 17 269 0.0 0.0 0.00 0.00 0.00 28 997.4
20260508224532 17 266 0.0 0.0 0.00 0.00 0.00 27 997.7
20260508223034 17 255 0.0 0.0 0.00 0.00 0.00 28 997.6
20260508221527 17 276 0.0 0.0 0.00 0.00 0.00 28 997.7
20260508220030 17 252 0.0 0.0 0.00 0.00 0.00 29 997.7
20260508214525 17 253 0.0 0.0 0.00 0.00 0.00 28 997.8
20260508213027 17 275 0.0 0.0 0.00 0.00 0.00 28 997.8
20260508211524 17 239 0.0 0.0 0.00 0.00 0.00 27 997.9
20260508210023 16 242 0.0 0.0 0.00 0.00 0.00 27 998.1
20260508204523 16 273 0.0 0.0 0.00 0.00 0.00 27 998.2
20260508203022 16 270 0.0 0.0 0.00 0.00 0.00 24 998.2
20260508201526 16 254 0.0 0.0 0.00 0.00 0.00 29 998.1
20260508200024 16 271 0.0 0.0 0.00 0.00 0.00 30 998.2
20260508194519 16 243 0.0 0.0 0.00 0.00 0.00 29 998.3